Theta_e
295 294 293 292 292 291 290 290 289 289 288 288 288 287 287 287 286 286 285 285 285 285 285 285 285 284 284 284 284 284 283 282 282 283 283 283 285 286 286 285 286 286 287
293 292 291 291 290 290 289 289 289 288 288 288 288 288 287 287 286 285 284 284 284 284 284 284 284 284 284 283 283 283 282 281 280 281 282 281 281 283 285 286 284 284 284
293 291 291 290 289 289 289 289 288 288 288 288 288 288 288 287 286 285 284 283 283 283 283 283 283 283 283 282 282 281 281 280 279 279 280 279 279 280 281 282 284 284 283
293 291 290 289 289 289 288 288 288 288 288 288 288 288 288 287 286 284 283 283 283 283 283 283 282 282 282 281 281 280 279 278 277 277 277 278 278 278 278 279 280 282 283
292 291 290 289 288 288 288 288 288 288 288 288 288 288 287 287 286 283 282 282 282 282 282 282 282 282 281 281 279 278 276 275 275 275 275 276 277 277 277 277 277 278 280
293 292 290 289 288 288 288 288 288 288 288 287 287 287 287 287 285 283 282 282 282 282 282 281 281 281 280 279 278 276 274 274 274 274 274 275 276 276 276 276 276 276 276
294 292 290 289 288 288 287 287 287 287 287 287 287 286 286 286 285 283 282 282 281 281 281 281 280 279 278 277 276 274 273 273 274 274 274 274 275 275 275 275 276 276 276
294 291 290 289 288 288 287 287 287 287 287 286 286 286 286 285 284 282 281 281 281 281 280 280 280 279 277 276 274 274 274 274 274 274 274 275 275 275 276 277 277 277 277
292 291 291 290 289 288 288 287 287 286 286 286 286 286 285 285 282 281 281 281 280 280 280 280 279 278 276 274 275 275 275 275 276 276 276 276 277 277 277 278 278 277 278
291 290 289 289 289 288 287 287 286 286 285 285 286 286 285 284 282 280 280 280 279 279 279 279 277 274 274 274 275 275 276 277 277 277 277 277 276 276 276 276 276 276 276
289 288 288 288 288 288 287 286 285 285 285 285 286 285 284 283 281 280 279 279 278 278 277 276 275 274 274 275 275 276 275 275 275 274 274 275 276 276 276 276 276 276 275
289 289 289 288 288 288 287 286 285 285 285 285 285 284 284 282 280 279 278 278 277 275 275 274 274 274 273 273 274 274 272 272 273 273 274 275 275 276 276 276 275 275 275
289 289 288 288 288 287 286 286 285 285 285 284 284 284 283 280 279 278 277 276 276 275 273 273 274 273 273 274 274 274 273 272 271 271 271 272 273 274 275 276 276 275 275
289 289 288 288 287 287 286 286 285 285 284 284 284 283 281 280 279 278 277 276 274 273 273 273 273 273 273 273 273 273 272 272 271 270 269 270 273 274 274 274 274 275 273
289 288 288 287 287 286 285 285 284 284 283 283 282 280 279 278 278 277 274 273 273 273 273 273 273 272 272 272 272 272 271 271 270 268 269 270 272 272 273 273 272 273 273
289 288 288 287 286 285 284 284 283 282 282 282 280 279 278 277 276 274 272 272 273 272 272 272 272 271 271 271 271 271 271 270 270 270 270 269 269 270 271 272 272 273 273
288 287 286 286 285 284 283 282 281 281 280 280 278 277 276 275 275 274 271 271 271 272 271 271 271 271 270 271 270 270 270 270 270 270 270 270 269 268 269 270 271 271 273
287 286 285 284 283 282 281 280 280 280 279 277 276 274 275 274 273 272 270 270 272 271 271 270 270 270 270 270 270 270 270 270 270 270 270 270 268 268 268 270 271 270 272
285 284 283 282 281 280 279 278 278 278 277 276 274 273 273 273 273 272 271 271 271 271 270 270 270 270 270 270 270 270 270 270 270 269 270 269 268 268 268 269 270 271 272
282 281 280 279 279 278 277 276 275 274 273 273 273 272 271 271 271 271 270 270 270 270 270 270 269 269 269 269 269 269 270 270 269 269 269 269 269 268 269 269 270 271 272
280 279 278 277 276 275 274 273 272 271 271 271 271 270 270 270 270 271 270 269 269 269 269 269 269 269 269 269 269 269 269 269 269 269 269 269 269 268 269 270 270 271 272
276 275 274 273 272 272 271 270 270 269 269 269 269 269 269 268 269 269 269 268 268 268 268 268 269 269 269 268 268 269 269 269 269 269 269 269 269 269 269 270 270 271 272
274 273 272 271 270 270 269 268 268 267 267 267 267 268 268 268 268 268 268 268 268 268 268 268 268 268 268 268 268 268 268 269 269 268 269 269 269 269 270 270 270 271 271
272 271 270 269 268 267 267 266 265 265 265 265 266 266 267 267 267 268 268 267 268 268 268 267 267 267 267 267 267 267 268 269 268 269 269 269 269 270 270 270 270 271 271
270 269 269 268 267 266 265 264 264 264 264 264 265 265 266 266 267 267 267 267 267 267 267 266 267 267 267 267 267 267 268 269 268 268 268 268 269 270 270 270 270 270 271
268 268 267 266 265 264 264 264 264 263 264 264 264 265 265 266 266 267 267 266 266 266 267 267 267 267 267 267 267 267 268 269 269 269 268 268 269 269 269 270 270 270 270
Wind_Speed
14 14 13 12 11 10 9 7 6 6 6 6 8 10 11 13 15 17 18 19 20 21 23 25 27 29 32 33 34 34 32 27 30 48 39 40 45 48 51 48 48 48 48
17 17 16 15 14 12 11 10 8 7 6 8 10 13 15 17 18 19 20 20 22 24 26 28 30 31 33 33 33 34 34 32 29 40 45 35 33 38 44 50 49 44 48
20 19 19 18 16 16 15 12 9 7 8 10 13 15 18 20 22 23 23 23 24 26 28 30 31 33 34 34 34 35 34 34 31 33 48 37 35 31 33 38 43 47 45
23 23 22 20 19 19 18 15 12 10 10 12 14 18 21 23 24 24 25 25 27 28 30 32 33 34 34 36 37 36 34 32 28 30 36 39 34 31 29 32 36 31 37
26 25 24 23 22 22 21 18 15 14 14 15 16 19 22 24 26 26 27 28 29 30 32 33 34 35 36 36 36 34 32 31 28 31 34 35 33 30 29 30 34 37 41
29 27 26 26 26 25 24 22 20 19 19 18 19 20 23 25 27 28 28 29 30 31 33 34 35 36 35 35 34 32 26 28 31 31 33 33 33 31 32 31 31 34 41
30 28 27 27 27 27 27 26 26 24 23 22 22 23 24 27 29 29 29 30 31 31 33 34 36 35 35 33 33 29 25 24 25 29 34 34 35 29 29 31 30 32 37
27 28 27 28 30 31 31 30 30 29 27 24 24 24 26 28 30 30 30 30 31 32 33 34 35 35 33 31 29 32 33 31 30 30 32 35 36 35 37 41 42 42 40
23 25 27 28 31 33 34 34 32 30 28 26 25 26 28 30 30 30 30 31 31 32 32 33 34 34 31 26 31 35 36 37 37 38 34 34 36 36 36 40 44 40 43
19 21 23 26 29 31 33 33 32 29 27 27 27 28 30 32 31 30 30 30 31 32 32 32 30 25 27 28 31 35 42 41 32 33 33 27 25 34 37 36 39 42 42
17 17 19 22 25 27 29 30 29 28 28 28 29 30 32 32 30 30 30 28 28 29 29 29 28 26 28 29 30 35 39 39 40 40 40 40 38 37 35 29 32 35 40
18 18 18 21 23 25 26 27 27 27 29 29 30 31 33 31 30 29 29 28 26 25 27 25 26 27 30 34 34 34 32 32 35 36 35 35 35 34 33 30 27 29 34
23 24 23 23 26 26 26 27 28 29 31 31 32 33 33 32 31 30 26 24 24 23 23 24 28 35 34 33 32 31 31 29 26 27 28 30 29 31 33 33 30 28 31
26 28 26 25 27 28 27 28 29 31 31 32 33 33 31 31 31 30 26 25 23 21 23 31 35 32 30 30 29 27 26 25 25 24 24 27 29 29 30 29 29 28 29
29 29 27 27 28 29 29 29 30 31 32 32 32 31 31 31 29 28 20 20 21 23 28 31 30 29 29 27 26 25 25 25 24 23 24 27 27 27 28 27 24 27 31
29 29 29 28 28 29 30 30 31 32 32 33 31 30 30 31 27 26 18 18 19 28 28 30 28 26 26 26 26 26 25 26 26 27 26 26 26 27 28 28 25 26 30
29 29 28 28 28 29 30 30 31 32 32 32 31 30 29 28 28 25 17 16 24 26 25 24 24 24 24 24 24 25 26 26 28 28 28 29 26 27 28 30 30 27 28
27 28 27 27 28 29 31 31 32 33 32 29 28 28 28 26 26 22 16 18 22 21 21 21 22 22 22 23 23 24 25 26 27 28 29 31 27 27 31 32 31 30 31
24 24 25 27 28 30 31 32 32 32 32 32 27 24 26 26 25 22 21 21 21 21 20 20 20 21 22 22 23 24 25 25 26 28 30 32 29 27 33 32 32 31 31
22 24 26 28 29 30 31 32 32 31 31 30 29 23 23 25 23 22 21 20 20 21 21 22 22 22 23 23 24 25 26 25 26 27 30 32 32 28 33 32 31 31 31
22 24 26 27 28 30 31 32 32 31 30 29 27 24 22 23 23 23 21 19 19 21 22 23 23 23 24 24 24 25 26 25 25 26 30 33 33 34 33 31 29 28 28
20 22 23 25 26 27 28 29 30 30 30 29 27 24 22 24 24 23 22 21 21 22 23 24 24 24 23 24 23 24 25 25 23 24 28 31 33 34 32 30 28 27 26
19 21 23 24 25 26 28 28 29 29 29 27 26 25 23 24 24 23 23 22 23 23 23 23 23 22 21 22 21 22 23 22 20 22 27 30 32 32 30 29 27 26 24
19 20 20 20 21 23 24 26 26 26 26 26 26 25 24 23 23 23 23 22 22 22 22 21 21 22 20 20 20 20 20 17 16 19 25 28 29 28 27 26 25 23 22
16 15 15 16 17 18 19 21 22 23 23 23 23 22 22 22 22 22 22 22 22 22 21 20 21 21 21 20 19 19 18 15 14 16 25 26 24 23 23 23 23 22 20
14 13 13 14 15 16 17 19 20 20 21 21 21 20 21 21 21 21 20 21 21 22 21 20 22 21 21 20 19 18 17 14 12 10 19 22 22 21 21 21 21 20 19
Wind_Direction
216 214 209 213 220 226 232 241 250 261 277 296 308 315 318 317 315 313 311 309 310 312 315 318 320 320 320 318 314 308 302 294 287 296 293 297 296 297 299 298 296 295 292
222 219 218 220 224 231 232 232 240 257 287 310 321 323 322 319 317 315 311 310 312 316 318 319 320 319 317 315 310 305 301 297 292 293 298 297 294 295 292 293 297 292 293
227 225 226 227 228 231 234 239 246 268 297 313 320 323 323 320 318 316 313 314 316 319 319 320 319 318 316 314 310 306 301 297 293 290 294 297 296 300 300 293 290 292 296
231 230 230 232 234 233 238 241 249 267 287 302 312 317 320 319 315 314 313 314 317 319 319 319 318 316 314 313 309 306 303 299 296 293 292 296 298 300 294 297 298 291 287
235 234 234 235 235 237 241 243 251 265 277 287 299 308 313 315 313 312 311 311 314 316 316 315 315 314 313 312 310 306 300 296 294 293 294 297 297 300 298 295 291 295 290
239 239 237 237 241 245 247 250 256 263 272 279 290 300 307 310 307 307 307 309 312 314 314 315 315 314 313 311 308 302 293 293 294 291 291 292 296 295 295 294 293 297 299
241 240 239 242 246 250 251 254 260 265 270 277 288 297 304 307 305 305 305 307 309 312 313 315 314 314 314 312 308 303 298 295 291 292 288 287 290 292 293 293 293 291 293
237 240 241 245 250 253 256 259 261 265 271 279 287 295 304 304 302 303 303 305 308 311 313 313 312 313 313 310 308 313 310 304 297 293 289 291 292 294 296 298 297 297 294
234 240 246 251 256 258 260 260 261 265 271 278 285 296 302 302 300 301 303 306 308 310 312 312 311 311 315 313 307 303 304 304 308 308 293 288 283 283 283 286 285 286 285
240 252 257 258 259 259 259 259 261 265 271 277 287 298 302 300 298 301 304 307 309 309 307 309 312 306 305 307 305 305 304 304 306 308 301 294 290 289 289 282 282 279 281
247 250 256 259 259 258 257 258 260 265 271 279 290 297 298 297 297 299 302 305 306 306 307 308 307 309 309 306 303 296 294 299 294 291 287 287 291 294 296 291 284 280 281
247 254 266 270 266 261 258 259 262 267 273 282 290 294 295 294 296 298 302 306 305 302 305 304 310 306 301 306 307 307 305 300 293 297 296 295 297 299 298 298 282 274 276
255 259 264 269 258 258 259 261 264 268 273 280 288 292 291 292 294 297 303 304 304 304 304 305 289 302 310 313 317 315 312 311 307 304 302 299 297 297 298 301 296 287 283
259 257 259 266 260 257 258 262 266 270 275 281 285 286 285 287 292 297 303 306 319 314 309 297 304 309 312 316 320 322 324 322 318 312 306 304 305 307 306 308 306 301 294
255 253 257 261 260 258 260 263 267 270 273 278 282 282 283 285 290 295 300 305 307 302 288 297 307 312 317 321 325 330 333 334 330 323 316 316 314 315 313 314 304 302 294
251 250 255 258 258 258 260 266 269 273 277 280 280 280 282 285 288 287 295 291 294 282 292 303 307 313 317 322 327 331 336 338 337 331 331 327 322 320 318 314 311 303 298
248 251 254 257 259 260 262 266 271 274 276 277 276 275 275 278 280 286 283 290 277 285 293 299 305 310 316 320 324 328 332 337 337 339 337 335 330 326 321 317 315 311 304
248 252 254 257 259 261 265 267 269 271 273 271 271 272 274 274 276 280 284 272 284 288 292 297 302 307 313 316 321 324 327 332 336 338 339 340 333 323 321 321 317 312 309
249 252 256 260 263 265 267 268 269 270 271 273 269 267 271 271 274 280 273 281 286 288 292 295 299 304 309 312 317 321 324 328 334 337 339 341 337 325 320 323 320 319 318
254 259 261 264 266 268 270 271 271 271 270 270 271 272 267 270 272 273 274 277 279 284 288 292 296 301 305 310 313 317 318 323 331 334 336 340 341 329 329 328 325 322 320
266 268 269 270 271 272 272 273 273 273 272 271 271 270 268 267 267 269 273 275 277 280 285 289 294 299 302 306 308 313 314 319 326 330 335 338 340 339 335 331 328 326 325
273 275 278 280 281 281 280 277 276 276 275 274 274 269 264 263 267 271 273 277 279 282 285 289 293 297 301 304 307 310 311 317 325 329 333 337 341 338 335 333 332 331 330
286 288 289 289 289 288 286 283 279 276 273 270 268 265 261 262 264 267 272 277 279 282 285 288 292 295 299 302 306 309 309 314 323 329 332 337 340 337 337 336 335 334 333
295 296 296 297 296 295 291 287 283 280 276 274 271 268 265 265 266 269 273 277 279 281 283 286 291 294 298 300 303 305 304 307 319 330 336 338 334 336 339 341 341 339 336
295 297 302 305 304 301 296 293 289 287 283 279 276 274 271 270 271 273 275 277 279 281 283 288 290 291 294 295 299 301 302 299 307 328 339 332 329 336 343 347 347 348 346
292 297 302 304 304 301 298 298 295 291 287 284 280 276 274 274 275 275 276 278 280 281 285 290 290 290 291 291 294 297 298 292 300 324 324 331 331 337 343 349 355 358 1